Weather History for KPNE - December, 2012

Change the Weather History Date:

Saturday, December 8, 2012

  Actual Average Record
Temperature  
Mean Temperature 46 °F -  
Max Temperature 51 °F 45 °F 60 °F (2004)
Min Temperature 42 °F 31 °F 21 °F (2005)
Degree Days  
Heating Degree Days 18    
Moisture  
Dew Point 45 °F    
Average Humidity 96    
Maximum Humidity 100    
Minimum Humidity 87    
Precipitation  
Precipitation 0.19 in - - ()
Sea Level Pressure  
Sea Level Pressure 29.96 in    
Wind  
Wind Speed 3 mph (NW)    
Max Wind Speed 8 mph    
Max Gust Speed -    
Visibility 3 miles    
Events Fog , Rain    
Averages and records for this station are not official NWS values.
T = Trace of Precipitation, MM = Missing Value Source: NWS Daily Summary

Daily Weather History Graph

Daily Weather History Graph

Search for Another Location

Airport or City:

Trip Planner

Search our weather history database for the weather conditions in past years. The results will help you decide how hot, cold, wet, or windy it might be!

Date:

Astronomy

Dec. 08, 2012 Rise Set
Actual Time 7:09 AM EST 4:34 PM EST
Civil Twilight 6:39 AM EST 5:04 PM EST
Nautical Twilight 6:05 AM EST 5:38 PM EST
Astronomical Twilight 5:32 AM EST 6:11 PM EST
Moon 1:31 AM EST (12/8) 1:03 PM EST (12/8)
Length of Visible Light 10h 25m
Length of Day
9h 24m
Waning Crescent, 28% of the Moon is Illuminated
Dec 8
Waning Crescent
Dec 13
New
Dec 20
First Quarter
Dec 28
Full
Jan 4
Last Quarter

Hourly Weather History & Observations

Time (EST) Temp. Windchill Dew Point Humidity Pressure Visibility Wind Dir Wind Speed Gust Speed Precip Events Conditions
12:04 AM 42.8 °F 41.1 °F 42.8 °F 100% 30.03 in 1.8 mi NNE 3.5 mph - 0.02 in Rain Rain
12:24 AM 42.8 °F - 42.8 °F 100% 30.02 in 3.0 mi Calm Calm - 0.12 in Rain Rain
12:34 AM 42.8 °F 40.1 °F 42.8 °F 100% 30.01 in 2.5 mi NE 4.6 mph - 0.14 in Rain Rain
12:41 AM 42.8 °F 40.1 °F 41.0 °F 93% 30.01 in 3.0 mi NE 4.6 mph - 0.15 in Rain Light Rain
12:54 AM 42.1 °F 38.4 °F 41.0 °F 96% 30.01 in 4.0 mi NE 5.8 mph - 0.16 in Rain Light Rain
1:18 AM 42.8 °F 39.3 °F 42.8 °F 100% 30.00 in 5.0 mi NNE 5.8 mph - 0.00 in Rain Light Rain
1:49 AM 42.8 °F 40.1 °F 42.8 °F 100% 29.99 in 5.0 mi NNE 4.6 mph - 0.00 in Rain Light Rain
1:54 AM 43.0 °F 39.5 °F 42.1 °F 97% 29.99 in 4.0 mi NNE 5.8 mph - 0.01 in Rain Light Rain
2:15 AM 42.8 °F 38.6 °F 42.8 °F 100% 29.98 in 4.0 mi NE 6.9 mph - 0.01 in Rain Light Rain
2:54 AM 43.0 °F 39.5 °F 42.1 °F 97% 29.97 in 5.0 mi NNE 5.8 mph - 0.01 in   Overcast
3:12 AM 42.8 °F 39.3 °F 42.8 °F 100% 29.97 in 2.0 mi NNE 5.8 mph - 0.00 in Rain Light Rain
3:50 AM 42.8 °F 39.3 °F 42.8 °F 100% 29.95 in 3.0 mi NE 5.8 mph - 0.00 in   Overcast
3:54 AM 43.0 °F 41.3 °F 42.1 °F 97% 29.95 in 3.0 mi NE 3.5 mph - 0.01 in   Overcast
4:10 AM 42.8 °F 41.1 °F 42.8 °F 100% 29.94 in 2.5 mi ENE 3.5 mph - N/A   Overcast
4:28 AM 44.6 °F 43.1 °F 42.8 °F 93% 29.94 in 3.0 mi NNE 3.5 mph - N/A   Overcast
4:54 AM 44.1 °F 41.5 °F 43.0 °F 96% 29.93 in 3.0 mi NNE 4.6 mph - N/A   Overcast
5:41 AM 44.6 °F 43.1 °F 42.8 °F 93% 29.93 in 2.5 mi ENE 3.5 mph - N/A   Overcast
5:54 AM 44.6 °F - 42.8 °F 93% 29.93 in 1.8 mi Calm Calm - N/A   Overcast
6:54 AM 44.6 °F - 44.6 °F 100% 29.94 in 1.8 mi Calm Calm - N/A   Overcast
7:34 AM 44.6 °F - 44.6 °F 100% 29.93 in 0.5 mi Calm Calm - N/A Fog Fog
7:54 AM 45.0 °F 43.5 °F 44.1 °F 97% 29.94 in 1.8 mi NNW 3.5 mph - N/A   Overcast
8:01 AM 44.6 °F - 44.6 °F 100% 29.94 in 3.0 mi Calm Calm - N/A   Overcast
8:11 AM 44.6 °F - 44.6 °F 100% 29.94 in 2.5 mi Calm Calm - N/A   Overcast
8:47 AM 44.6 °F - 44.6 °F 100% 29.94 in 1.5 mi Calm Calm - N/A   Overcast
8:54 AM 45.0 °F - 45.0 °F 100% 29.95 in 1.8 mi Calm Calm - N/A   Overcast
9:01 AM 44.6 °F - 44.6 °F 100% 29.95 in 2.5 mi Calm Calm - N/A   Overcast
9:34 AM 46.4 °F - 44.6 °F 93% 29.95 in 3.0 mi Calm Calm - N/A   Overcast
9:41 AM 46.4 °F - 44.6 °F 93% 29.96 in 2.5 mi Calm Calm - N/A   Overcast
9:54 AM 46.9 °F - 46.0 °F 97% 29.96 in 3.0 mi Calm Calm - N/A   Overcast
10:08 AM 46.4 °F - 46.4 °F 100% 29.95 in 2.5 mi Calm Calm - N/A   Overcast
10:44 AM 48.2 °F - 46.4 °F 93% 29.95 in 3.0 mi Calm Calm - N/A   Overcast
10:54 AM 48.0 °F - 46.9 °F 96% 29.95 in 3.0 mi West 4.6 mph - N/A   Overcast
11:54 AM 50.0 °F - 48.0 °F 93% 29.94 in 6.0 mi WSW 8.1 mph - N/A   Overcast
12:02 PM 50.0 °F - 46.4 °F 87% 29.93 in 5.0 mi SW 5.8 mph - N/A   Overcast
12:54 PM 51.1 °F - 48.0 °F 89% 29.92 in 5.0 mi WSW 4.6 mph - N/A   Overcast
1:54 PM 51.1 °F - 48.0 °F 89% 29.91 in 5.0 mi SSW 8.1 mph - N/A   Overcast
2:54 PM 51.1 °F - 48.9 °F 92% 29.93 in 3.0 mi SSW 4.6 mph - N/A   Overcast
3:54 PM 51.1 °F - 48.9 °F 92% 29.93 in 4.0 mi Calm Calm - N/A   Overcast
4:54 PM 51.1 °F - 48.9 °F 92% 29.94 in 4.0 mi SW 4.6 mph - N/A   Overcast
5:54 PM 50.0 °F - 48.9 °F 96% 29.95 in 4.0 mi SW 4.6 mph - N/A   Overcast
6:17 PM 50.0 °F - 48.2 °F 94% 29.96 in 3.0 mi SSW 4.6 mph - N/A   Overcast
6:54 PM 50.0 °F - 48.9 °F 96% 29.96 in 3.0 mi SW 4.6 mph - N/A   Overcast
7:54 PM 50.0 °F - 48.9 °F 96% 29.99 in 3.0 mi SSW 3.5 mph - N/A   Overcast
8:43 PM 50.0 °F - 48.2 °F 94% 30.00 in 2.5 mi WSW 6.9 mph - 0.00 in   Overcast
8:54 PM 50.0 °F - 48.0 °F 93% 30.00 in 3.0 mi WSW 5.8 mph - 0.00 in   Overcast
9:54 PM 50.0 °F - 48.0 °F 93% 30.01 in 3.0 mi SW 3.5 mph - 0.00 in   Overcast
10:52 PM 50.0 °F - 48.2 °F 94% 30.03 in 5.0 mi West 4.6 mph - 0.00 in Rain Light Rain
10:54 PM 50.0 °F - 48.0 °F 93% 30.03 in 5.0 mi WSW 4.6 mph - 0.00 in Rain Light Rain
11:54 PM 48.9 °F - 48.0 °F 97% 30.04 in 5.0 mi Calm Calm - 0.00 in   Overcast